• In Deutschland
  • Länderverzeichnis
  • Für 7 Tage
  • Wassertemperatur
  • Satellitenkarten
  • Wetterkarte
  • Widgets
  • user-avatar
    Anmelden

    Stündliche Wetter Baku

    Heute, 25 Mai, Donnerstag

    Zeit Temperatur Niederschläge Wind Luftdruck Luftfeuchtigkeit
    00:00 +17°C° 0,2 mm 9 m/S 760 mmHg 68%
    01:00 +17°C° 0 mm 9 m/S 760 mmHg 68%
    02:00 +17°C° 0 mm 8 m/S 760 mmHg 68%
    03:00 +17°C° 0 mm 8 m/S 760 mmHg 71%
    04:00 +17°C° 0 mm 8 m/S 760 mmHg 71%
    05:00 +17°C° 0 mm 8 m/S 760 mmHg 72%
    06:00 +17°C° 0 mm 8 m/S 760 mmHg 72%
    07:00 +18°C° 0 mm 7 m/S 761 mmHg 69%
    08:00 +18°C° 0 mm 7 m/S 761 mmHg 66%
    09:00 +20°C° 0 mm 6 m/S 761 mmHg 63%
    10:00 +21°C° 0 mm 6 m/S 761 mmHg 61%
    11:00 +21°C° 0 mm 6 m/S 761 mmHg 59%
    12:00 +22°C° 0 mm 6 m/S 761 mmHg 57%
    13:00 +21°C° 0 mm 5 m/S 761 mmHg 57%
    14:00 +21°C° 0 mm 5 m/S 761 mmHg 58%
    15:00 +21°C° 0 mm 5 m/S 761 mmHg 59%
    16:00 +20°C° 0 mm 5 m/S 761 mmHg 62%
    17:00 +19°C° 0 mm 5 m/S 761 mmHg 65%
    18:00 +17°C° 0 mm 5 m/S 761 mmHg 68%
    19:00 +17°C° 0 mm 5 m/S 762 mmHg 67%
    20:00 +17°C° 0 mm 5 m/S 762 mmHg 67%
    21:00 +17°C° 0 mm 5 m/S 762 mmHg 67%
    22:00 +17°C° 0 mm 5 m/S 762 mmHg 68%
    23:00 +17°C° 0 mm 5 m/S 762 mmHg 68%

    Morgen, 26 Mai, Freitag

    Zeit Temperatur Niederschläge Wind Luftdruck Luftfeuchtigkeit
    00:00 +18°C° 0 mm 4 m/S 762 mmHg 68%
    01:00 +17°C° 0 mm 4 m/S 762 mmHg 69%
    02:00 +17°C° 0 mm 4 m/S 762 mmHg 70%
    03:00 +17°C° 0 mm 4 m/S 762 mmHg 71%
    04:00 +17°C° 0 mm 3 m/S 762 mmHg 70%
    05:00 +18°C° 0 mm 3 m/S 762 mmHg 69%
    06:00 +18°C° 0 mm 3 m/S 763 mmHg 67%
    07:00 +19°C° 0 mm 3 m/S 763 mmHg 64%
    08:00 +20°C° 0 mm 3 m/S 763 mmHg 62%
    09:00 +21°C° 0 mm 3 m/S 763 mmHg 59%
    10:00 +21°C° 0 mm 3 m/S 763 mmHg 57%
    11:00 +22°C° 0 mm 3 m/S 762 mmHg 55%
    12:00 +24°C° 0 mm 3 m/S 762 mmHg 54%
    13:00 +23°C° 0 mm 4 m/S 762 mmHg 54%
    14:00 +23°C° 0 mm 4 m/S 761 mmHg 54%
    15:00 +23°C° 0 mm 4 m/S 761 mmHg 54%
    16:00 +22°C° 0 mm 4 m/S 760 mmHg 57%
    17:00 +21°C° 0 mm 4 m/S 760 mmHg 60%
    18:00 +21°C° 0 mm 3 m/S 760 mmHg 62%
    19:00 +20°C° 0 mm 3 m/S 760 mmHg 65%
    20:00 +20°C° 0 mm 2 m/S 760 mmHg 68%
    21:00 +19°C° 0 mm 2 m/S 761 mmHg 70%
    22:00 +19°C° 0 mm 2 m/S 760 mmHg 71%
    23:00 +18°C° 0 mm 2 m/S 760 mmHg 72%

    übermorgen, 27 Mai, Samstag

    Zeit Temperatur Niederschläge Wind Luftdruck Luftfeuchtigkeit
    00:00 +18°C° 0 mm 2 m/S 760 mmHg 73%
    01:00 +18°C° 0 mm 2 m/S 760 mmHg 74%
    02:00 +18°C° 0 mm 2 m/S 759 mmHg 75%
    03:00 +17°C° 0 mm 2 m/S 759 mmHg 76%
    04:00 +18°C° 0 mm 2 m/S 759 mmHg 73%
    05:00 +18°C° 0 mm 2 m/S 759 mmHg 71%
    06:00 +20°C° 0 mm 1 m/S 759 mmHg 69%
    07:00 +20°C° 0 mm 2 m/S 759 mmHg 64%
    08:00 +21°C° 0 mm 2 m/S 759 mmHg 60%
    09:00 +23°C° 0 mm 2 m/S 759 mmHg 55%
    10:00 +24°C° 0 mm 2 m/S 759 mmHg 52%
    11:00 +25°C° 0 mm 3 m/S 759 mmHg 49%
    12:00 +26°C° 0 mm 3 m/S 758 mmHg 46%
    13:00 +26°C° 0 mm 3 m/S 758 mmHg 46%
    14:00 +26°C° 0 mm 3 m/S 757 mmHg 46%
    15:00 +26°C° 0 mm 4 m/S 757 mmHg 46%
    16:00 +25°C° 0,1 mm 4 m/S 757 mmHg 49%
    17:00 +24°C° 0,1 mm 3 m/S 757 mmHg 53%
    18:00 +22°C° 0,1 mm 3 m/S 757 mmHg 56%
    19:00 +21°C° 0,2 mm 4 m/S 757 mmHg 61%
    20:00 +20°C° 0,2 mm 4 m/S 757 mmHg 66%
    21:00 +19°C° 0,2 mm 4 m/S 758 mmHg 70%
    22:00 +19°C° 0,3 mm 5 m/S 757 mmHg 71%
    23:00 +19°C° 0,3 mm 5 m/S 757 mmHg 73%

    28 Mai, Sonntag

    Zeit Temperatur Niederschläge Wind Luftdruck Luftfeuchtigkeit
    00:00 +19°C° 0,3 mm 5 m/S 757 mmHg 74%
    01:00 +19°C° 0 mm 5 m/S 757 mmHg 74%
    02:00 +18°C° 0 mm 4 m/S 757 mmHg 74%
    03:00 +18°C° 0 mm 4 m/S 757 mmHg 73%
    04:00 +19°C° 0 mm 4 m/S 757 mmHg 70%
    05:00 +19°C° 0 mm 4 m/S 757 mmHg 67%
    06:00 +20°C° 0 mm 4 m/S 757 mmHg 64%
    07:00 +21°C° 0 mm 4 m/S 758 mmHg 58%
    08:00 +22°C° 0 mm 4 m/S 758 mmHg 52%
    09:00 +25°C° 0 mm 3 m/S 758 mmHg 47%
    10:00 +25°C° 0 mm 4 m/S 758 mmHg 44%
    11:00 +26°C° 0 mm 4 m/S 758 mmHg 41%
    12:00 +27°C° 0 mm 4 m/S 757 mmHg 39%
    13:00 +27°C° 0 mm 4 m/S 757 mmHg 40%
    14:00 +26°C° 0 mm 5 m/S 757 mmHg 42%
    15:00 +26°C° 0 mm 5 m/S 756 mmHg 43%
    16:00 +25°C° 0 mm 4 m/S 756 mmHg 46%
    17:00 +23°C° 0 mm 4 m/S 757 mmHg 48%
    18:00 +22°C° 0 mm 4 m/S 757 mmHg 51%
    19:00 +22°C° 0 mm 3 m/S 757 mmHg 53%
    20:00 +21°C° 0 mm 3 m/S 757 mmHg 55%
    21:00 +21°C° 0 mm 3 m/S 758 mmHg 56%
    22:00 +21°C° 0 mm 3 m/S 758 mmHg 57%
    23:00 +20°C° 0 mm 3 m/S 758 mmHg 57%

    29 Mai, Montag

    Zeit Temperatur Niederschläge Wind Luftdruck Luftfeuchtigkeit
    00:00 +20°C° 0 mm 4 m/S 758 mmHg 57%
    01:00 +20°C° 0 mm 4 m/S 758 mmHg 57%
    02:00 +20°C° 0 mm 5 m/S 759 mmHg 57%
    03:00 +20°C° 0 mm 5 m/S 759 mmHg 56%
    04:00 +20°C° 0 mm 7 m/S 760 mmHg 62%
    05:00 +20°C° 0 mm 8 m/S 760 mmHg 68%
    06:00 +19°C° 0 mm 10 m/S 761 mmHg 73%
    07:00 +19°C° 0 mm 11 m/S 762 mmHg 70%
    08:00 +21°C° 0 mm 12 m/S 763 mmHg 66%
    09:00 +20°C° 0 mm 13 m/S 764 mmHg 63%
    10:00 +20°C° 0 mm 13 m/S 764 mmHg 61%
    11:00 +20°C° 0 mm 13 m/S 765 mmHg 60%
    12:00 +20°C° 0 mm 13 m/S 765 mmHg 58%
    13:00 +19°C° 0 mm 13 m/S 766 mmHg 58%
    14:00 +19°C° 0 mm 12 m/S 766 mmHg 59%
    15:00 +18°C° 0 mm 12 m/S 766 mmHg 59%
    16:00 +17°C° 0 mm 11 m/S 766 mmHg 58%
    17:00 +17°C° 0 mm 10 m/S 767 mmHg 57%
    18:00 +16°C° 0 mm 9 m/S 767 mmHg 56%
    19:00 +16°C° 0 mm 8 m/S 767 mmHg 57%
    20:00 +15°C° 0 mm 7 m/S 767 mmHg 58%
    21:00 +15°C° 0 mm 5 m/S 768 mmHg 58%
    22:00 +15°C° 0 mm 4 m/S 767 mmHg 59%
    23:00 +16°C° 0 mm 3 m/S 767 mmHg 59%

    30 Mai, Dienstag

    Zeit Temperatur Niederschläge Wind Luftdruck Luftfeuchtigkeit
    00:00 +16°C° 0 mm 2 m/S 766 mmHg 59%
    01:00 +15°C° 0 mm 2 m/S 766 mmHg 60%
    02:00 +15°C° 0 mm 2 m/S 766 mmHg 61%
    03:00 +15°C° 0 mm 2 m/S 765 mmHg 62%
    04:00 +16°C° 0 mm 3 m/S 765 mmHg 60%
    05:00 +16°C° 0 mm 3 m/S 765 mmHg 58%
    06:00 +17°C° 0 mm 3 m/S 765 mmHg 56%
    07:00 +18°C° 0 mm 4 m/S 765 mmHg 53%
    08:00 +19°C° 0 mm 4 m/S 764 mmHg 50%
    09:00 +20°C° 0 mm 5 m/S 764 mmHg 47%
    10:00 +21°C° 0 mm 5 m/S 763 mmHg 47%
    11:00 +22°C° 0 mm 6 m/S 763 mmHg 46%
    12:00 +23°C° 0 mm 6 m/S 762 mmHg 46%
    13:00 +23°C° 0 mm 6 m/S 762 mmHg 46%
    14:00 +23°C° 0 mm 6 m/S 761 mmHg 46%
    15:00 +23°C° 0 mm 6 m/S 761 mmHg 47%
    16:00 +23°C° 0 mm 6 m/S 760 mmHg 48%
    17:00 +22°C° 0 mm 5 m/S 760 mmHg 50%
    18:00 +22°C° 0 mm 5 m/S 760 mmHg 51%
    19:00 +21°C° 0 mm 4 m/S 760 mmHg 54%
    20:00 +20°C° 0 mm 4 m/S 760 mmHg 57%
    21:00 +20°C° 0 mm 3 m/S 760 mmHg 60%
    22:00 +20°C° 0 mm 3 m/S 760 mmHg 60%
    23:00 +20°C° 0 mm 3 m/S 760 mmHg 61%
    Mehr zeigen